Location: Bothwell
(42.3833°S, 147.0000°E)
Time: 08:07:20
(UTC+11:00)

Oscar 19 - Pass Details

Date: 07 December 2023
Orbit: 771 x 789 km, 98.9° (Epoch: 26 February)

Event Time Altitude Azimuth Distance (km) Brightness Sun altitude
Rises 03:55:56 0° 48° (NE) 3,286 13.9 -13.8°
Reaches altitude 10° 03:58:32 10° 59° (ENE) 2,365 13.3 -13.5°
Maximum altitude 04:02:53 27° 115° (ESE) 1,485 12.9 -13.0°
Drops below altitude 10° 04:07:16 10° 172° (S) 2,386 14.0 -12.4°
Sets 04:09:54 0° 183° (S) 3,320 14.6 -12.1°
